WJ584 CYXU-CYYC

Flight info

Callsign WJ584
Flight time N/A
Altitude 36000
Route DCT HOCKE DCT GRB DCT GGULL DCT MOT DCT BEVEL DCT VESDO EBGAL7
Aircraft B738/M-V/N

Departure

Time 2026-04-26 00:20
Airport London International Airport (CYXU)

Arrival

Time N/A
Airport Calgary International Airport (CYYC)
Time Latitude Longitude Altitude Speed Heading
2026-04-25 23:54 43.02946 -81.14865 905 ft 0 kts 230°
2026-04-26 00:11 43.02949 -81.14859 905 ft 2 kts 230°
2026-04-26 00:11 43.02959 -81.14844 905 ft 2 kts 230°
2026-04-26 00:11 43.02968 -81.14823 905 ft 2 kts 268°
2026-04-26 00:12 43.02963 -81.14799 905 ft 2 kts 315°
2026-04-26 00:12 43.02956 -81.14793 905 ft 0 kts 326°
2026-04-26 00:13 43.02973 -81.14811 905 ft 6 kts 318°
2026-04-26 00:14 43.03018 -81.14865 905 ft 11 kts 319°
2026-04-26 00:14 43.03090 -81.14952 905 ft 16 kts 318°
2026-04-26 00:14 43.03179 -81.15059 906 ft 16 kts 319°
2026-04-26 00:14 43.03257 -81.15152 908 ft 13 kts 319°
2026-04-26 00:15 43.03325 -81.15234 908 ft 14 kts 318°
2026-04-26 00:15 43.03401 -81.15327 910 ft 15 kts 319°
2026-04-26 00:15 43.03479 -81.15420 911 ft 14 kts 319°
2026-04-26 00:15 43.03547 -81.15501 913 ft 11 kts 319°
2026-04-26 00:16 43.03599 -81.15565 914 ft 9 kts 319°
2026-04-26 00:16 43.03654 -81.15631 915 ft 12 kts 319°
2026-04-26 00:16 43.03720 -81.15710 914 ft 13 kts 319°
2026-04-26 00:16 43.03791 -81.15796 912 ft 14 kts 319°
2026-04-26 00:17 43.03873 -81.15894 912 ft 16 kts 319°
2026-04-26 00:17 43.03955 -81.15990 912 ft 14 kts 327°
2026-04-26 00:17 43.04034 -81.16009 911 ft 0 kts
2026-04-26 00:18 43.04037 -81.16009 911 ft 2 kts
2026-04-26 00:18 43.04088 -81.16003 912 ft 10 kts 13°
2026-04-26 00:19 43.04144 -81.15951 913 ft 8 kts 56°
2026-04-26 00:19 43.04141 -81.15899 914 ft 4 kts 137°
2026-04-26 00:19 43.04135 -81.15891 914 ft 0 kts 139°
2026-04-26 00:19 43.04082 -81.15828 915 ft 38 kts 138°
2026-04-26 00:20 43.03712 -81.15382 915 ft 104 kts 139°
2026-04-26 00:20 43.03020 -81.14555 908 ft 161 kts 138°
2026-04-26 00:20 43.02088 -81.13479 1201 ft 182 kts 137°
2026-04-26 00:20 43.01127 -81.12399 1925 ft 185 kts 136°
2026-04-26 00:21 43.00131 -81.11284 2670 ft 184 kts 134°
2026-04-26 00:21 42.99160 -81.10181 3240 ft 185 kts 136°
2026-04-26 00:21 42.97911 -81.09473 3538 ft 213 kts 168°
2026-04-26 00:21 42.96343 -81.09627 3875 ft 236 kts 193°
2026-04-26 00:22 42.94783 -81.10571 4101 ft 262 kts 214°
2026-04-26 00:22 42.93451 -81.12296 4690 ft 267 kts 238°
2026-04-26 00:22 42.92671 -81.14478 5469 ft 258 kts 262°
2026-04-26 00:22 42.92534 -81.16721 5840 ft 262 kts 285°
2026-04-26 00:23 42.93007 -81.18977 6322 ft 264 kts 297°
2026-04-26 00:23 42.93663 -81.21268 6974 ft 269 kts 297°
2026-04-26 00:23 42.94264 -81.23517 7688 ft 270 kts 295°
2026-04-26 00:23 42.94811 -81.25792 8333 ft 273 kts 293°
2026-04-26 00:24 42.95339 -81.28144 9050 ft 274 kts 293°
2026-04-26 00:24 42.95867 -81.30539 9662 ft 277 kts 292°
2026-04-26 00:24 42.96418 -81.33040 10358 ft 278 kts 292°
2026-04-26 00:24 42.96987 -81.35588 10609 ft 295 kts 292°
2026-04-26 00:25 42.97596 -81.38305 11019 ft 306 kts 292°
2026-04-26 00:25 42.98227 -81.41132 11341 ft 320 kts 291°
2026-04-26 00:25 42.98889 -81.44109 11644 ft 335 kts 291°
2026-04-26 00:25 42.99575 -81.47207 11901 ft 349 kts 291°
2026-04-26 00:26 43.00291 -81.50449 12159 ft 363 kts 291°
2026-04-26 00:26 43.01029 -81.53801 12426 ft 376 kts 290°
2026-04-26 00:26 43.01789 -81.57265 13043 ft 378 kts 290°
2026-04-26 00:26 43.02535 -81.60680 13633 ft 380 kts 290°
2026-04-26 00:27 43.03309 -81.64225 14234 ft 383 kts 290°
2026-04-26 00:27 43.04088 -81.67791 14763 ft 388 kts 289°
2026-04-26 00:27 43.04883 -81.71423 15376 ft 390 kts 289°
2026-04-26 00:27 43.05676 -81.75046 15972 ft 392 kts 289°
2026-04-26 00:28 43.06481 -81.78732 16494 ft 396 kts 289°
2026-04-26 00:28 43.07285 -81.82412 17072 ft 398 kts 288°
2026-04-26 00:28 43.08106 -81.86182 17577 ft 402 kts 288°
2026-04-26 00:28 43.08917 -81.89912 18099 ft 405 kts 288°
2026-04-26 00:29 43.09721 -81.93612 18576 ft 408 kts 288°
2026-04-26 00:29 43.10533 -81.97359 19044 ft 412 kts 289°
2026-04-26 00:29 43.11342 -82.01096 19564 ft 414 kts 289°
2026-04-26 00:29 43.12171 -82.04927 19944 ft 419 kts 289°
2026-04-26 00:30 43.12990 -82.08718 20476 ft 420 kts 289°
2026-04-26 00:30 43.13820 -82.12569 20928 ft 423 kts 289°
2026-04-26 00:30 43.14645 -82.16406 21378 ft 426 kts 289°
2026-04-26 00:30 43.15480 -82.20303 21856 ft 427 kts 289°
2026-04-26 00:31 43.16307 -82.24171 22192 ft 432 kts 289°
2026-04-26 00:31 43.17152 -82.28126 22674 ft 433 kts 289°
2026-04-26 00:31 43.17996 -82.32080 23066 ft 437 kts 289°
2026-04-26 00:31 43.18850 -82.36089 23537 ft 438 kts 289°
2026-04-26 00:32 43.19705 -82.40113 23913 ft 441 kts 289°
2026-04-26 00:32 43.20573 -82.44206 24349 ft 443 kts 289°
2026-04-26 00:32 43.22298 -82.52368 25199 ft 446 kts 289°
2026-04-26 00:33 43.23168 -82.56496 25507 ft 450 kts 289°
2026-04-26 00:33 43.24027 -82.60577 25935 ft 451 kts 289°
2026-04-26 00:33 43.24887 -82.64673 26197 ft 455 kts 289°
2026-04-26 00:33 43.25761 -82.68848 26623 ft 455 kts 288°
2026-04-26 00:34 43.26650 -82.73012 27266 ft 450 kts 290°
2026-04-26 00:34 43.27613 -82.77022 27784 ft 447 kts 291°
2026-04-26 00:34 43.28654 -82.80981 28219 ft 446 kts 292°
2026-04-26 00:34 43.29739 -82.84959 28668 ft 444 kts 292°
2026-04-26 00:35 43.30828 -82.88937 29138 ft 442 kts 293°
2026-04-26 00:35 43.31889 -82.92840 29653 ft 439 kts 292°
2026-04-26 00:35 43.32939 -82.96740 30029 ft 438 kts 292°
2026-04-26 00:35 43.33979 -83.00633 30418 ft 437 kts 292°
2026-04-26 00:36 43.35020 -83.04556 30809 ft 435 kts 292°
2026-04-26 00:36 43.36041 -83.08425 31135 ft 434 kts 292°
2026-04-26 00:36 43.37067 -83.12328 31426 ft 435 kts 292°
2026-04-26 00:36 43.38078 -83.16199 31700 ft 435 kts 291°
2026-04-26 00:37 43.39093 -83.20094 31932 ft 436 kts 291°
2026-04-26 00:37 43.40094 -83.23953 32201 ft 435 kts 291°
2026-04-26 00:37 43.41106 -83.27855 32484 ft 435 kts 291°
2026-04-26 00:37 43.42108 -83.31733 32807 ft 433 kts 291°
2026-04-26 00:38 43.43092 -83.35541 33024 ft 433 kts 291°
2026-04-26 00:38 43.44088 -83.39403 33294 ft 432 kts 291°
2026-04-26 00:38 43.45080 -83.43255 33515 ft 432 kts 291°
2026-04-26 00:38 43.46061 -83.47068 33779 ft 430 kts 291°
2026-04-26 00:39 43.47053 -83.50931 34043 ft 429 kts 291°
2026-04-26 00:39 43.48038 -83.54780 34200 ft 430 kts 291°
2026-04-26 00:39 43.49022 -83.58630 34446 ft 428 kts 291°
2026-04-26 00:39 43.50005 -83.62482 34652 ft 427 kts 291°
2026-04-26 00:40 43.50978 -83.66300 34822 ft 427 kts 290°
2026-04-26 00:40 43.51950 -83.70118 34958 ft 427 kts 290°
2026-04-26 00:40 43.52911 -83.73899 35127 ft 426 kts 290°
2026-04-26 00:40 43.53883 -83.77727 35231 ft 426 kts 290°
2026-04-26 00:41 43.54853 -83.81557 35411 ft 425 kts 290°
2026-04-26 00:41 43.55819 -83.85373 35519 ft 425 kts 289°
2026-04-26 00:41 43.56781 -83.89185 35661 ft 425 kts 289°
2026-04-26 00:41 43.57757 -83.93054 35731 ft 425 kts 289°
2026-04-26 00:42 43.58714 -83.96854 35945 ft 422 kts 289°
2026-04-26 00:42 43.59677 -84.00688 36031 ft 423 kts 289°
2026-04-26 00:42 43.61586 -84.08301 36099 ft 423 kts 289°
2026-04-26 00:43 43.63499 -84.15958 36105 ft 423 kts 289°
2026-04-26 00:43 43.65396 -84.23563 36103 ft 423 kts 289°
2026-04-26 00:44 43.67302 -84.31246 36099 ft 423 kts 289°
2026-04-26 00:44 43.69196 -84.38918 36098 ft 422 kts 289°
2026-04-26 00:45 43.70760 -84.45271 36093 ft 423 kts 289°
2026-04-26 00:45 43.72955 -84.54206 36093 ft 422 kts 289°
2026-04-26 00:46 43.74822 -84.61824 36086 ft 422 kts 289°
2026-04-26 00:46 43.76703 -84.69506 36082 ft 421 kts 288°
2026-04-26 00:47 43.78556 -84.77133 36083 ft 421 kts 288°
2026-04-26 00:47 43.80404 -84.84765 36076 ft 421 kts 288°
2026-04-26 00:48 43.82246 -84.92391 36071 ft 422 kts 289°
2026-04-26 00:48 43.84089 -85.00050 36068 ft 421 kts 289°
2026-04-26 00:49 43.85933 -85.07743 36061 ft 421 kts 289°
2026-04-26 00:49 43.87763 -85.15389 36067 ft 420 kts 288°
2026-04-26 00:50 43.89579 -85.23015 36061 ft 420 kts 289°
2026-04-26 00:50 43.91394 -85.30653 36068 ft 419 kts 289°
2026-04-26 00:51 43.93202 -85.38290 36069 ft 420 kts 289°
2026-04-26 00:51 43.95009 -85.45946 36063 ft 420 kts 288°
2026-04-26 00:52 43.96806 -85.53587 36068 ft 420 kts 289°
2026-04-26 00:52 43.98605 -85.61267 36067 ft 419 kts 288°
2026-04-26 00:53 44.00389 -85.68905 36070 ft 420 kts 288°
2026-04-26 00:53 44.02175 -85.76571 36074 ft 420 kts 288°
2026-04-26 00:54 44.03945 -85.84209 36074 ft 419 kts 288°
2026-04-26 00:54 44.05697 -85.91786 36070 ft 420 kts 288°
2026-04-26 00:55 44.07460 -85.99442 36072 ft 420 kts 288°
2026-04-26 00:55 44.09192 -86.06992 36069 ft 420 kts 288°
2026-04-26 00:56 44.10918 -86.14544 36072 ft 420 kts 288°
2026-04-26 00:56 44.12607 -86.21955 36075 ft 420 kts 288°
2026-04-26 00:57 44.14349 -86.29627 36079 ft 419 kts 287°
2026-04-26 00:57 44.16088 -86.37318 36075 ft 419 kts 287°
2026-04-26 00:58 44.17827 -86.45040 36080 ft 419 kts 288°
2026-04-26 00:58 44.19568 -86.52775 36078 ft 420 kts 287°
2026-04-26 00:59 44.21302 -86.60512 36079 ft 419 kts 287°
2026-04-26 00:59 44.23023 -86.68233 36076 ft 421 kts 287°
2026-04-26 01:00 44.24766 -86.76065 36078 ft 421 kts 287°
2026-04-26 01:00 44.26478 -86.83794 36081 ft 419 kts 287°
2026-04-26 01:01 44.28195 -86.91579 36087 ft 420 kts 286°
2026-04-26 01:01 44.29908 -86.99372 36088 ft 419 kts 286°
2026-04-26 01:02 44.31608 -87.07130 36081 ft 419 kts 286°
2026-04-26 01:02 44.33286 -87.14825 36085 ft 419 kts 286°
2026-04-26 01:03 44.34918 -87.22331 36083 ft 419 kts 286°
2026-04-26 01:03 44.36565 -87.29929 36081 ft 419 kts 286°
2026-04-26 01:04 44.38228 -87.37621 36085 ft 419 kts 286°
2026-04-26 01:04 44.39892 -87.45350 36086 ft 419 kts 286°
2026-04-26 01:05 44.41561 -87.53137 36088 ft 420 kts 286°
2026-04-26 01:05 44.43218 -87.60898 36086 ft 420 kts 286°
2026-04-26 01:06 44.44864 -87.68636 36084 ft 420 kts 285°
2026-04-26 01:06 44.46508 -87.76385 36087 ft 419 kts 285°
2026-04-26 01:07 44.48113 -87.83988 36085 ft 419 kts 285°
2026-04-26 01:07 44.49731 -87.91679 36089 ft 419 kts 285°
2026-04-26 01:08 44.51357 -87.99442 36095 ft 418 kts 285°
2026-04-26 01:08 44.52979 -88.07214 36099 ft 419 kts 285°
2026-04-26 01:09 44.54600 -88.14957 36099 ft 418 kts 285°
2026-04-26 01:09 44.56648 -88.22508 36101 ft 421 kts 293°
2026-04-26 01:10 44.59229 -88.29833 36096 ft 421 kts 295°
2026-04-26 01:10 44.61927 -88.36987 36093 ft 420 kts 296°
2026-04-26 01:11 44.64636 -88.44185 36096 ft 420 kts 295°
2026-04-26 01:11 44.67315 -88.51395 36098 ft 420 kts 295°
2026-04-26 01:12 44.69965 -88.58593 36102 ft 420 kts 295°
2026-04-26 01:12 44.72631 -88.65860 36101 ft 419 kts 295°
2026-04-26 01:13 44.75269 -88.73083 36101 ft 418 kts 294°
2026-04-26 01:13 44.77906 -88.80335 36096 ft 417 kts 294°
2026-04-26 01:14 44.80522 -88.87545 36090 ft 419 kts 294°
2026-04-26 01:14 44.83145 -88.94794 36082 ft 417 kts 294°
2026-04-26 01:15 44.85754 -89.02021 36083 ft 417 kts 294°
2026-04-26 01:15 44.88353 -89.09233 36082 ft 418 kts 294°
2026-04-26 01:16 44.90970 -89.16519 36079 ft 419 kts 294°
2026-04-26 01:16 44.93582 -89.23808 36081 ft 418 kts 294°
2026-04-26 01:17 44.96179 -89.31072 36077 ft 418 kts 294°
2026-04-26 01:17 44.98783 -89.38382 36076 ft 417 kts 294°
2026-04-26 01:18 45.01360 -89.45631 36082 ft 416 kts 294°
2026-04-26 01:18 45.03937 -89.52906 36081 ft 417 kts 294°
2026-04-26 01:19 45.06509 -89.60181 36080 ft 418 kts 294°
2026-04-26 01:19 45.09082 -89.67474 36077 ft 418 kts 293°
2026-04-26 01:20 45.11638 -89.74742 36076 ft 418 kts 293°
2026-04-26 01:20 45.14193 -89.82027 36072 ft 417 kts 293°
2026-04-26 01:21 45.16734 -89.89300 36070 ft 417 kts 293°
2026-04-26 01:21 45.19261 -89.96549 36069 ft 417 kts 293°
2026-04-26 01:22 45.21775 -90.03774 36070 ft 416 kts 293°
2026-04-26 01:22 45.24244 -90.10889 36068 ft 415 kts 293°
2026-04-26 01:23 45.26669 -90.17893 36068 ft 416 kts 293°
2026-04-26 01:23 45.29121 -90.24995 36068 ft 416 kts 293°
2026-04-26 01:24 45.31570 -90.32107 36067 ft 416 kts 292°
2026-04-26 01:24 45.33988 -90.39150 36068 ft 417 kts 292°
2026-04-26 01:25 45.36415 -90.46239 36067 ft 416 kts 292°
2026-04-26 01:25 45.38813 -90.53269 36067 ft 416 kts 292°
2026-04-26 01:26 45.41234 -90.60381 36067 ft 415 kts 292°
2026-04-26 01:26 45.43623 -90.67411 36067 ft 414 kts 291°
2026-04-26 01:27 45.46014 -90.74463 36070 ft 414 kts 292°
2026-04-26 01:27 45.48415 -90.81562 36074 ft 414 kts 291°
2026-04-26 01:28 45.50804 -90.88653 36074 ft 415 kts 291°
2026-04-26 01:28 45.53177 -90.95710 36073 ft 415 kts 291°
2026-04-26 01:29 45.55526 -91.02728 36073 ft 415 kts 291°
2026-04-26 01:29 45.57870 -91.09748 36070 ft 414 kts 291°
2026-04-26 01:30 45.60222 -91.16808 36069 ft 415 kts 291°
2026-04-26 01:30 45.62637 -91.24000 36066 ft 416 kts 294°
2026-04-26 01:31 45.65969 -91.30539 36062 ft 424 kts 306°
2026-04-26 01:31 45.69846 -91.36512 36064 ft 427 kts 308°
2026-04-26 01:32 45.73823 -91.42408 36096 ft 425 kts 309°
2026-04-26 01:32 45.77895 -91.47719 36058 ft 406 kts 314°
2026-04-26 01:33 45.81929 -91.52343 36066 ft 399 kts 315°
2026-04-26 01:33 45.86201 -91.57289 36063 ft 404 kts 314°
2026-04-26 01:34 45.90451 -91.62329 36054 ft 409 kts 314°
2026-04-26 01:34 45.94656 -91.67382 36055 ft 414 kts 313°
2026-04-26 01:35 45.98951 -91.72581 36067 ft 420 kts 313°
2026-04-26 01:35 46.03311 -91.77876 36054 ft 425 kts 313°
2026-04-26 01:36 46.07769 -91.83302 36058 ft 431 kts 313°
2026-04-26 01:37 46.14559 -91.91598 36050 ft 435 kts 313°
2026-04-26 01:37 46.19085 -91.97141 36062 ft 436 kts 313°
2026-04-26 01:38 46.23586 -92.02663 36066 ft 434 kts 313°
2026-04-26 01:38 46.28077 -92.08188 36046 ft 436 kts 313°
2026-04-26 01:38 46.30339 -92.10980 35922 ft 441 kts 313°
2026-04-26 01:39 46.32630 -92.13814 35580 ft 445 kts 312°
2026-04-26 01:39 46.34908 -92.16624 35308 ft 436 kts 312°
2026-04-26 01:39 46.37133 -92.19357 35101 ft 427 kts 311°
2026-04-26 01:39 46.39310 -92.22042 34413 ft 429 kts 311°
2026-04-26 01:40 46.41531 -92.24796 33607 ft 430 kts 311°
2026-04-26 01:40 46.43759 -92.27560 32947 ft 429 kts 311°
2026-04-26 01:40 46.46012 -92.30363 32276 ft 433 kts 311°
2026-04-26 01:40 46.48269 -92.33179 31615 ft 438 kts 311°
2026-04-26 01:41 46.50591 -92.36062 30945 ft 442 kts 311°
2026-04-26 01:41 46.52911 -92.38953 30288 ft 447 kts 311°
2026-04-26 01:41 46.55231 -92.41846 29633 ft 448 kts 312°
2026-04-26 01:41 46.57574 -92.44778 28976 ft 449 kts 311°
2026-04-26 01:42 46.59931 -92.47734 28327 ft 452 kts 312°
2026-04-26 01:42 46.62242 -92.50638 27689 ft 454 kts 312°
2026-04-26 01:42 46.64483 -92.53458 27078 ft 455 kts 312°
2026-04-26 01:42 46.66765 -92.56333 26448 ft 456 kts 312°
2026-04-26 01:43 46.69065 -92.59232 25818 ft 458 kts 313°
2026-04-26 01:43 46.71329 -92.62082 25203 ft 459 kts 313°
2026-04-26 01:43 46.73601 -92.64940 24591 ft 456 kts 313°
2026-04-26 01:43 46.75854 -92.67771 23987 ft 452 kts 312°
2026-04-26 01:44 46.78057 -92.70543 23377 ft 448 kts 312°
2026-04-26 01:44 46.80242 -92.73296 22765 ft 444 kts 312°
2026-04-26 01:44 46.82409 -92.76032 22151 ft 441 kts 312°
2026-04-26 01:44 46.84552 -92.78740 21552 ft 438 kts 312°
2026-04-26 01:45 46.86713 -92.81471 20931 ft 435 kts 312°
2026-04-26 01:45 46.88828 -92.84146 20333 ft 434 kts 312°
2026-04-26 01:45 46.90951 -92.86841 19732 ft 433 kts 312°
2026-04-26 01:45 46.93032 -92.89483 19140 ft 431 kts 312°
2026-04-26 01:46 46.95110 -92.92121 18543 ft 428 kts 312°
2026-04-26 01:46 46.97162 -92.94733 17970 ft 426 kts 312°
2026-04-26 01:46 46.99235 -92.97375 17392 ft 423 kts 312°
2026-04-26 01:46 47.01262 -92.99957 16818 ft 420 kts 312°
2026-04-26 01:47 47.03286 -93.02537 16245 ft 417 kts 312°
2026-04-26 01:47 47.05288 -93.05096 15671 ft 414 kts 312°
2026-04-26 01:47 47.07322 -93.07700 15083 ft 411 kts 312°
2026-04-26 01:47 47.09325 -93.10268 14498 ft 408 kts 312°
2026-04-26 01:48 47.11291 -93.12791 13920 ft 405 kts 312°
2026-04-26 01:48 47.13280 -93.15345 13336 ft 402 kts 313°
2026-04-26 01:48 47.15241 -93.17868 12753 ft 399 kts 313°
2026-04-26 01:48 47.17195 -93.20393 12164 ft 396 kts 313°
2026-04-26 01:49 47.19126 -93.22894 11578 ft 393 kts 314°
2026-04-26 01:49 47.21086 -93.25434 11084 ft 387 kts 314°
2026-04-26 01:49 47.22981 -93.27888 10606 ft 383 kts 315°
2026-04-26 01:49 47.24906 -93.30383 10151 ft 379 kts 315°
2026-04-26 01:50 47.26804 -93.32844 10032 ft 374 kts 315°
2026-04-26 01:50 47.28672 -93.35267 10022 ft 378 kts 315°
2026-04-26 01:50 47.30522 -93.37670 10021 ft 380 kts 315°
2026-04-26 01:50 47.32465 -93.40196 10020 ft 380 kts 315°
2026-04-26 01:51 47.34332 -93.42624 10019 ft 381 kts 315°
2026-04-26 01:51 47.36220 -93.45081 10015 ft 380 kts 315°
2026-04-26 01:51 47.38131 -93.47570 10014 ft 381 kts 315°
2026-04-26 01:51 47.40161 -93.50217 10016 ft 381 kts 315°
2026-04-26 01:52 47.42177 -93.52840 10016 ft 382 kts 315°
2026-04-26 01:52 47.44194 -93.55466 10008 ft 378 kts 315°
2026-04-26 01:52 47.46217 -93.58050 10008 ft 380 kts 316°
2026-04-26 01:52 47.48195 -93.60606 10013 ft 381 kts 315°
2026-04-26 01:53 47.50117 -93.63140 10011 ft 379 kts 315°
2026-04-26 01:53 47.52042 -93.65691 10012 ft 378 kts 314°
2026-04-26 01:53 47.53954 -93.68224 10006 ft 379 kts 315°
2026-04-26 01:53 47.55919 -93.70837 10005 ft 377 kts 314°
2026-04-26 01:54 47.57804 -93.73435 10007 ft 377 kts 314°
2026-04-26 01:54 47.59688 -93.75954 10008 ft 379 kts 315°
2026-04-26 01:54 47.61564 -93.78406 10008 ft 380 kts 315°
2026-04-26 01:54 47.63506 -93.80930 10004 ft 378 kts 315°
2026-04-26 01:55 47.65402 -93.83401 10008 ft 378 kts 315°
2026-04-26 01:55 47.67313 -93.85908 10005 ft 379 kts 315°
2026-04-26 01:55 47.69226 -93.88430 10007 ft 378 kts 315°
2026-04-26 01:55 47.71156 -93.90984 10005 ft 377 kts 315°
2026-04-26 01:56 47.73069 -93.93522 10006 ft 377 kts 314°
2026-04-26 01:56 47.74996 -93.96089 10008 ft 378 kts 314°
2026-04-26 01:56 47.76884 -93.98635 10008 ft 376 kts 314°
2026-04-26 01:56 47.78822 -94.01210 10005 ft 375 kts 315°
2026-04-26 01:57 47.80720 -94.03725 10003 ft 376 kts 315°
2026-04-26 01:57 47.82633 -94.06263 10010 ft 376 kts 315°
2026-04-26 01:57 47.84552 -94.08812 10009 ft 375 kts 315°
2026-04-26 01:57 47.86447 -94.11338 10004 ft 374 kts 315°
2026-04-26 01:58 47.88292 -94.13806 10009 ft 375 kts 315°
2026-04-26 01:58 47.90190 -94.16352 10010 ft 375 kts 315°
2026-04-26 01:58 47.91999 -94.18780 10005 ft 375 kts 314°
2026-04-26 01:58 47.93848 -94.21264 10010 ft 376 kts 315°
2026-04-26 01:59 47.95705 -94.23762 10010 ft 375 kts 315°
2026-04-26 01:59 47.97558 -94.26257 10006 ft 375 kts 314°
2026-04-26 01:59 47.99387 -94.28721 10010 ft 376 kts 315°
2026-04-26 01:59 48.01214 -94.31184 10009 ft 375 kts 315°
2026-04-26 02:00 48.03062 -94.33678 10013 ft 375 kts 315°
2026-04-26 02:00 48.04895 -94.36156 10008 ft 374 kts 314°
2026-04-26 02:00 48.06731 -94.38645 10005 ft 373 kts 314°
2026-04-26 02:00 48.08563 -94.41131 10004 ft 373 kts 314°
2026-04-26 02:01 48.10458 -94.43702 10007 ft 373 kts 314°
2026-04-26 02:01 48.12434 -94.46380 10006 ft 373 kts 314°
2026-04-26 02:01 48.14370 -94.49010 10008 ft 372 kts 314°
2026-04-26 02:01 48.16286 -94.51617 10005 ft 374 kts 314°
2026-04-26 02:02 48.18235 -94.54270 10001 ft 373 kts 314°
2026-04-26 02:02 48.20123 -94.56841 10003 ft 372 kts 314°
2026-04-26 02:02 48.21950 -94.59333 10009 ft 374 kts 314°
2026-04-26 02:02 48.23807 -94.61867 10005 ft 373 kts 314°
2026-04-26 02:03 48.25663 -94.64401 10005 ft 373 kts 314°
2026-04-26 02:03 48.27505 -94.66920 10003 ft 372 kts 314°
2026-04-26 02:03 48.29337 -94.69427 10006 ft 371 kts 313°
2026-04-26 02:03 48.31175 -94.71944 10004 ft 370 kts 313°
2026-04-26 02:04 48.33054 -94.74519 10004 ft 371 kts 314°
2026-04-26 02:04 48.34969 -94.77148 10003 ft 371 kts 313°
2026-04-26 02:04 48.36863 -94.79749 10007 ft 370 kts 313°
2026-04-26 02:04 48.38772 -94.82375 10006 ft 370 kts 313°
2026-04-26 02:05 48.40635 -94.84941 10002 ft 368 kts 313°
2026-04-26 02:05 48.42531 -94.87554 10005 ft 368 kts 313°
2026-04-26 02:05 48.44406 -94.90143 10004 ft 367 kts 313°
2026-04-26 02:05 48.46225 -94.92654 10003 ft 368 kts 313°
2026-04-26 02:06 48.48042 -94.95164 10001 ft 366 kts 313°
2026-04-26 02:06 48.49817 -94.97620 10000 ft 367 kts 313°
2026-04-26 02:06 48.51610 -95.00107 10002 ft 368 kts 313°
2026-04-26 02:06 48.53418 -95.02614 10001 ft 367 kts 313°
2026-04-26 02:07 48.55215 -95.05109 9997 ft 367 kts 313°
2026-04-26 02:07 48.57008 -95.07600 10000 ft 367 kts 313°
2026-04-26 02:07 48.58806 -95.10098 9998 ft 366 kts 313°
2026-04-26 02:07 48.60572 -95.12557 9995 ft 365 kts 313°
2026-04-26 02:08 48.62405 -95.15112 9997 ft 366 kts 313°
2026-04-26 02:08 48.64179 -95.17587 9998 ft 364 kts 313°
2026-04-26 02:08 48.65974 -95.20091 9995 ft 363 kts 313°
2026-04-26 02:08 48.67742 -95.22561 9996 ft 364 kts 313°
2026-04-26 02:09 48.69551 -95.25094 9997 ft 364 kts 313°
2026-04-26 02:09 48.71354 -95.27622 9995 ft 363 kts 312°
2026-04-26 02:09 48.73185 -95.30191 10001 ft 363 kts 312°
2026-04-26 02:09 48.75045 -95.32804 10001 ft 363 kts 312°
2026-04-26 02:10 48.76905 -95.35417 9995 ft 362 kts 312°
2026-04-26 02:10 48.78759 -95.38024 10004 ft 363 kts 311°
2026-04-26 02:10 48.80606 -95.40627 10003 ft 363 kts 312°
2026-04-26 02:10 48.82446 -95.43218 10005 ft 361 kts 312°
2026-04-26 02:11 48.84290 -95.45821 10002 ft 363 kts 311°
2026-04-26 02:11 48.86124 -95.48413 10002 ft 362 kts 311°
2026-04-26 02:11 48.87973 -95.51029 9998 ft 361 kts 311°
2026-04-26 02:11 48.89789 -95.53599 10002 ft 361 kts 311°
2026-04-26 02:12 48.91579 -95.56135 10002 ft 359 kts 311°
2026-04-26 02:12 48.93343 -95.58637 10000 ft 359 kts 311°
2026-04-26 02:12 48.95085 -95.61112 10000 ft 360 kts 311°
2026-04-26 02:12 48.96831 -95.63596 10000 ft 361 kts 311°
2026-04-26 02:13 48.98550 -95.66042 9994 ft 361 kts 311°
2026-04-26 02:13 49.00260 -95.68475 9995 ft 361 kts 310°
2026-04-26 02:13 49.01938 -95.70862 9988 ft 361 kts 311°
2026-04-26 02:13 49.03645 -95.73295 9988 ft 361 kts 311°
2026-04-26 02:14 49.05351 -95.75729 9992 ft 360 kts 310°
2026-04-26 02:14 49.07051 -95.78160 9986 ft 360 kts 311°
2026-04-26 02:14 49.08746 -95.80582 9983 ft 360 kts 310°
2026-04-26 02:14 49.10434 -95.82999 9980 ft 362 kts 310°
2026-04-26 02:15 49.12103 -95.85391 9981 ft 361 kts 310°
2026-04-26 02:15 49.13782 -95.87800 9984 ft 360 kts 310°
2026-04-26 02:15 49.15444 -95.90184 9980 ft 362 kts 310°
2026-04-26 02:15 49.17153 -95.92638 9980 ft 360 kts 310°
2026-04-26 02:16 49.18868 -95.95100 9978 ft 362 kts 310°
2026-04-26 02:16 49.20679 -95.97710 9973 ft 362 kts 310°
2026-04-26 02:16 49.22574 -96.00442 9976 ft 361 kts 310°
2026-04-26 02:16 49.24424 -96.03114 9975 ft 361 kts 310°
2026-04-26 02:17 49.26241 -96.05740 9972 ft 362 kts 310°
2026-04-26 02:17 49.28044 -96.08345 9976 ft 360 kts 310°
2026-04-26 02:17 49.29749 -96.10815 9971 ft 362 kts 310°
2026-04-26 02:17 49.31408 -96.13219 9966 ft 358 kts 310°
2026-04-26 02:18 49.33119 -96.15704 9973 ft 362 kts 310°
2026-04-26 02:18 49.34771 -96.18105 9976 ft 364 kts 310°
2026-04-26 02:18 49.36446 -96.20541 9977 ft 362 kts 310°
2026-04-26 02:18 49.38139 -96.23002 9980 ft 365 kts 310°
2026-04-26 02:19 49.39817 -96.25440 9971 ft 366 kts 310°
2026-04-26 02:19 49.41492 -96.27872 9973 ft 365 kts 310°
2026-04-26 02:19 49.43190 -96.30344 9977 ft 363 kts 310°
2026-04-26 02:19 49.44913 -96.32858 9969 ft 366 kts 310°
2026-04-26 02:20 49.46659 -96.35404 9968 ft 366 kts 310°
2026-04-26 02:20 49.48390 -96.37935 9972 ft 365 kts 310°
2026-04-26 02:20 49.50243 -96.40650 9972 ft 366 kts 311°
2026-04-26 02:20 49.52121 -96.43405 9968 ft 367 kts 310°
2026-04-26 02:21 49.53850 -96.45947 9955 ft 368 kts 311°
2026-04-26 02:21 49.55569 -96.48473 9961 ft 367 kts 311°
2026-04-26 02:21 49.57350 -96.51095 9967 ft 367 kts 311°
2026-04-26 02:21 49.59083 -96.53650 9960 ft 368 kts 311°
2026-04-26 02:22 49.60886 -96.56316 9955 ft 369 kts 311°
2026-04-26 02:22 49.62647 -96.58926 9953 ft 370 kts 311°
2026-04-26 02:22 49.64468 -96.61623 9950 ft 368 kts 311°
2026-04-26 02:22 49.66299 -96.64335 9962 ft 369 kts 310°
2026-04-26 02:23 49.68136 -96.67055 9961 ft 368 kts 310°
2026-04-26 02:23 49.69975 -96.69786 9960 ft 370 kts 310°
2026-04-26 02:23 49.71836 -96.72557 9950 ft 369 kts 310°
2026-04-26 02:23 49.73679 -96.75303 9947 ft 369 kts 310°
2026-04-26 02:24 49.75544 -96.78086 9950 ft 369 kts 310°
2026-04-26 02:24 49.77457 -96.80946 9946 ft 370 kts 310°
2026-04-26 02:24 49.79362 -96.83797 9949 ft 369 kts 310°
2026-04-26 02:24 49.81248 -96.86627 9952 ft 371 kts 310°
2026-04-26 02:25 49.83094 -96.89397 9946 ft 369 kts 310°
2026-04-26 02:25 49.84993 -96.92245 9953 ft 370 kts 310°
2026-04-26 02:25 49.86851 -96.95036 9950 ft 370 kts 310°
2026-04-26 02:25 49.88691 -96.97794 9951 ft 370 kts 310°
2026-04-26 02:26 49.90524 -97.00542 9954 ft 370 kts 311°
2026-04-26 02:26 49.92266 -97.03153 9958 ft 370 kts 311°
2026-04-26 02:26 49.93953 -97.05688 9950 ft 369 kts 311°
2026-04-26 02:26 49.95739 -97.08363 9955 ft 369 kts 311°
2026-04-26 02:27 49.97613 -97.11137 9955 ft 370 kts 311°
2026-04-26 02:27 49.99449 -97.13840 9953 ft 370 kts 311°
2026-04-26 02:27 50.01318 -97.16592 9953 ft 371 kts 312°
2026-04-26 02:27 50.03155 -97.19366 9951 ft 369 kts 307°
2026-04-26 02:28 50.04531 -97.22620 9950 ft 358 kts 288°
2026-04-26 02:28 50.05072 -97.26340 9953 ft 347 kts 268°
2026-04-26 02:28 50.04719 -97.29870 9945 ft 321 kts 247°
2026-04-26 02:28 50.03552 -97.32715 9947 ft 291 kts 224°
2026-04-26 02:29 50.01865 -97.34290 9947 ft 270 kts 198°
2026-04-26 02:29 50.00082 -97.34434 9946 ft 258 kts 172°
2026-04-26 02:29 49.98494 -97.33386 9982 ft 242 kts 156°
2026-04-26 02:29 49.97197 -97.32053 9935 ft 216 kts 153°
2026-04-26 02:30 49.96147 -97.30861 9975 ft 190 kts 153°
2026-04-26 02:30 49.95176 -97.29731 9955 ft 188 kts 153°
2026-04-26 02:30 49.94183 -97.28587 9959 ft 196 kts 153°
2026-04-26 02:30 49.93135 -97.27573 9958 ft 193 kts 161°
2026-04-26 02:31 49.92051 -97.26695 9958 ft 193 kts 162°
2026-04-26 02:31 49.90963 -97.25803 9958 ft 191 kts 161°
2026-04-26 02:31 49.89867 -97.24889 9960 ft 192 kts 161°
2026-04-26 02:31 49.88774 -97.23977 9962 ft 192 kts 161°
2026-04-26 02:32 49.87691 -97.23074 9958 ft 191 kts 161°
2026-04-26 02:32 49.86651 -97.21968 9956 ft 199 kts 146°
2026-04-26 02:32 49.85857 -97.20351 9958 ft 210 kts 127°
2026-04-26 02:32 49.85417 -97.18338 9957 ft 221 kts 107°
2026-04-26 02:33 49.85392 -97.16131 9958 ft 229 kts 88°
2026-04-26 02:33 49.85798 -97.13941 9962 ft 236 kts 69°
2026-04-26 02:33 49.86599 -97.12010 9956 ft 235 kts 49°
2026-04-26 02:33 49.87734 -97.10509 9957 ft 236 kts 30°
2026-04-26 02:34 49.89084 -97.09582 9957 ft 232 kts 11°
2026-04-26 02:34 49.90533 -97.09306 9956 ft 225 kts 351°
2026-04-26 02:34 49.91885 -97.09688 9957 ft 214 kts 332°
2026-04-26 02:34 49.93122 -97.10545 9958 ft 210 kts 324°
2026-04-26 02:35 49.94390 -97.11529 9954 ft 210 kts 324°
2026-04-26 02:35 49.95670 -97.12515 9958 ft 211 kts 325°
2026-04-26 02:35 49.96958 -97.13512 9959 ft 209 kts 325°
2026-04-26 02:35 49.98239 -97.14508 9963 ft 209 kts 324°
2026-04-26 02:36 49.99541 -97.15522 9962 ft 209 kts 324°
2026-04-26 02:36 50.00840 -97.16534 9963 ft 209 kts 324°
2026-04-26 02:36 50.02118 -97.17532 9961 ft 209 kts 324°
2026-04-26 02:36 50.03448 -97.18568 9965 ft 211 kts 325°
2026-04-26 02:37 50.04750 -97.19588 9962 ft 211 kts 324°
2026-04-26 02:37 50.05949 -97.20747 9965 ft 203 kts 310°
2026-04-26 02:37 50.06809 -97.22362 9964 ft 192 kts 290°
2026-04-26 02:37 50.07196 -97.24208 9960 ft 181 kts 270°
2026-04-26 02:38 50.07095 -97.26064 9960 ft 174 kts 249°
2026-04-26 02:38 50.06505 -97.27692 9962 ft 171 kts 227°
2026-04-26 02:38 50.05545 -97.28750 9961 ft 172 kts 207°
2026-04-26 02:38 50.04344 -97.29095 9965 ft 180 kts 185°
2026-04-26 02:39 50.03111 -97.28652 9966 ft 189 kts 165°
2026-04-26 02:39 50.01932 -97.27721 9967 ft 192 kts 160°
2026-04-26 02:39 50.00763 -97.26756 9963 ft 191 kts 161°
2026-04-26 02:39 49.99632 -97.25830 9968 ft 190 kts 163°
2026-04-26 02:40 49.98477 -97.25291 9968 ft 181 kts 181°
2026-04-26 02:40 49.97314 -97.25352 9974 ft 177 kts 193°
2026-04-26 02:40 49.96135 -97.25579 9970 ft 176 kts 193°
2026-04-26 02:40 49.94954 -97.25800 9970 ft 177 kts 193°
2026-04-26 02:41 49.93788 -97.26015 9969 ft 177 kts 193°
2026-04-26 02:41 49.92614 -97.26188 9968 ft 178 kts 187°
2026-04-26 02:41 49.91480 -97.25866 9970 ft 187 kts 168°
2026-04-26 02:41 49.90373 -97.25035 9975 ft 193 kts 161°
2026-04-26 02:42 49.89294 -97.24123 9972 ft 192 kts 161°
2026-04-26 02:42 49.88196 -97.23194 9971 ft 192 kts 161°
2026-04-26 02:42 49.87091 -97.22262 9971 ft 193 kts 161°
2026-04-26 02:42 49.85987 -97.21335 9970 ft 192 kts 161°
2026-04-26 02:43 49.83767 -97.19460 9970 ft 191 kts 161°
2026-04-26 02:43 49.82637 -97.18504 9971 ft 191 kts 161°
2026-04-26 02:43 49.81498 -97.17540 9968 ft 192 kts 160°
2026-04-26 02:44 49.80339 -97.16564 9967 ft 191 kts 160°
2026-04-26 02:44 49.79182 -97.15585 9968 ft 190 kts 161°
2026-04-26 02:44 49.78029 -97.14610 9970 ft 191 kts 161°
2026-04-26 02:44 49.76866 -97.13629 9968 ft 191 kts 161°
2026-04-26 02:45 49.75720 -97.12646 9964 ft 193 kts 158°
2026-04-26 02:45 49.74783 -97.11030 9964 ft 213 kts 123°
2026-04-26 02:45 49.74566 -97.08678 9966 ft 230 kts 86°
2026-04-26 02:45 49.75213 -97.06436 9968 ft 238 kts 51°
2026-04-26 02:46 49.76537 -97.04995 9967 ft 235 kts 15°
2026-04-26 02:46 49.78015 -97.04812 9963 ft 220 kts 340°
2026-04-26 02:46 49.79287 -97.05562 9974 ft 213 kts 325°
2026-04-26 02:46 49.80499 -97.06480 9965 ft 210 kts 324°
2026-04-26 02:47 49.81693 -97.07375 9968 ft 211 kts 324°
2026-04-26 02:47 49.82898 -97.08279 9969 ft 210 kts 324°
2026-04-26 02:47 49.84083 -97.09169 9970 ft 210 kts 324°
2026-04-26 02:47 49.85289 -97.10085 9969 ft 210 kts 324°
2026-04-26 02:48 49.86482 -97.10993 9970 ft 210 kts 325°
2026-04-26 02:48 49.87675 -97.11910 9970 ft 211 kts 324°
2026-04-26 02:48 49.88881 -97.12839 9970 ft 212 kts 325°
2026-04-26 02:48 49.90089 -97.13771 9970 ft 210 kts 324°
2026-04-26 02:49 49.91317 -97.14722 9970 ft 210 kts 325°
2026-04-26 02:49 49.92550 -97.15672 9970 ft 211 kts 324°
2026-04-26 02:49 49.93838 -97.16665 9967 ft 211 kts 324°
2026-04-26 02:49 49.95119 -97.17655 9970 ft 210 kts 325°
2026-04-26 02:50 49.96394 -97.18646 9970 ft 211 kts 324°
2026-04-26 02:50 49.97696 -97.19659 9971 ft 211 kts 325°
2026-04-26 02:50 49.98943 -97.20777 9965 ft 203 kts 311°
2026-04-26 02:50 49.99737 -97.22408 9969 ft 188 kts 284°
2026-04-26 02:51 49.99884 -97.24317 9971 ft 176 kts 255°
2026-04-26 02:51 49.99360 -97.25978 9970 ft 170 kts 226°
2026-04-26 02:51 49.98363 -97.26920 9978 ft 173 kts 205°
2026-04-26 02:51 49.97242 -97.27527 9970 ft 173 kts 203°
2026-04-26 02:52 49.96109 -97.28043 9967 ft 175 kts 194°
2026-04-26 02:52 49.94924 -97.27866 9971 ft 188 kts 169°
2026-04-26 02:52 49.93820 -97.27038 9975 ft 192 kts 162°
2026-04-26 02:52 49.92739 -97.26186 9971 ft 190 kts 163°
2026-04-26 02:53 49.91642 -97.25373 9973 ft 191 kts 164°
2026-04-26 02:53 49.90558 -97.24567 9972 ft 191 kts 164°
2026-04-26 02:53 49.89432 -97.23736 9972 ft 190 kts 164°
2026-04-26 02:53 49.88245 -97.22864 9972 ft 190 kts 164°
2026-04-26 02:54 49.87063 -97.21991 9972 ft 190 kts 164°
2026-04-26 02:54 49.85903 -97.21127 9973 ft 191 kts 164°
2026-04-26 02:54 49.84793 -97.20287 9970 ft 192 kts 160°
2026-04-26 02:54 49.83821 -97.18969 9969 ft 205 kts 135°
2026-04-26 02:55 49.83277 -97.16977 9972 ft 221 kts 108°
2026-04-26 02:55 49.83324 -97.14704 9974 ft 233 kts 81°
2026-04-26 02:55 49.83964 -97.12595 9972 ft 236 kts 54°
2026-04-26 02:55 49.85086 -97.11033 9970 ft 234 kts 28°
2026-04-26 02:56 49.86443 -97.10307 9969 ft 227 kts
2026-04-26 02:56 49.87830 -97.10459 9970 ft 218 kts 336°
2026-04-26 02:56 49.89068 -97.11275 9973 ft 212 kts 324°
2026-04-26 02:56 49.90269 -97.12212 9968 ft 211 kts 324°
2026-04-26 02:57 49.91489 -97.13152 9970 ft 212 kts 325°
2026-04-26 02:57 49.92738 -97.14108 9970 ft 210 kts 324°
2026-04-26 02:57 49.94009 -97.15075 9971 ft 211 kts 325°
2026-04-26 02:57 49.95221 -97.16206 9967 ft 203 kts 311°
2026-04-26 02:58 49.96091 -97.17791 9969 ft 190 kts 290°
2026-04-26 02:58 49.96492 -97.19628 9971 ft 179 kts 269°
2026-04-26 02:58 49.96393 -97.21482 9971 ft 172 kts 249°
2026-04-26 02:58 49.95816 -97.23059 9972 ft 169 kts 228°
2026-04-26 02:59 49.94880 -97.24091 9970 ft 172 kts 207°
2026-04-26 02:59 49.93770 -97.24500 9972 ft 176 kts 193°
2026-04-26 02:59 49.92625 -97.24426 9969 ft 184 kts 176°
2026-04-26 02:59 49.91491 -97.23908 9975 ft 187 kts 172°
2026-04-26 03:00 49.90346 -97.23399 9972 ft 186 kts 173°
2026-04-26 03:00 49.89194 -97.22894 9968 ft 185 kts 171°
2026-04-26 03:00 49.88079 -97.22134 9973 ft 191 kts 162°
2026-04-26 03:00 49.86986 -97.21243 9972 ft 191 kts 161°
2026-04-26 03:01 49.85879 -97.20348 9971 ft 190 kts 161°
2026-04-26 03:01 49.84769 -97.19456 9971 ft 190 kts 162°
2026-04-26 03:01 49.83649 -97.18559 9972 ft 192 kts 162°
2026-04-26 03:01 49.82472 -97.17963 9967 ft 181 kts 180°
2026-04-26 03:02 49.81267 -97.18085 9817 ft 176 kts 203°
2026-04-26 03:02 49.80338 -97.19171 9329 ft 175 kts 237°
2026-04-26 03:02 49.80102 -97.20975 8758 ft 181 kts 273°
2026-04-26 03:02 49.80464 -97.22752 8223 ft 185 kts 283°
2026-04-26 03:03 49.80909 -97.24540 7656 ft 183 kts 283°
2026-04-26 03:03 49.81340 -97.26323 7090 ft 181 kts 283°
2026-04-26 03:03 49.81753 -97.28077 6534 ft 181 kts 283°
2026-04-26 03:03 49.82169 -97.29906 5961 ft 181 kts 283°
2026-04-26 03:04 49.82564 -97.31683 5478 ft 172 kts 283°
2026-04-26 03:04 49.82988 -97.33370 5068 ft 165 kts 295°
2026-04-26 03:04 49.83877 -97.34500 4428 ft 180 kts 338°
2026-04-26 03:04 49.85094 -97.34557 3930 ft 180 kts
2026-04-26 03:05 49.86299 -97.34300 3491 ft 179 kts
2026-04-26 03:05 49.87544 -97.34071 3140 ft 179 kts
2026-04-26 03:05 49.88748 -97.33858 3026 ft 173 kts
2026-04-26 03:05 49.89945 -97.33634 2981 ft 173 kts
2026-04-26 03:06 49.91145 -97.33368 3016 ft 175 kts
2026-04-26 03:06 49.92350 -97.33118 3060 ft 177 kts
2026-04-26 03:06 49.93570 -97.32885 3144 ft 176 kts
2026-04-26 03:06 49.94791 -97.32650 3168 ft 178 kts
2026-04-26 03:07 49.96022 -97.32405 3201 ft 178 kts
2026-04-26 03:07 49.97242 -97.32148 3219 ft 177 kts
2026-04-26 03:07 49.98462 -97.31922 3208 ft 178 kts
2026-04-26 03:07 49.99689 -97.31740 3246 ft 175 kts
2026-04-26 03:08 50.00911 -97.31562 3222 ft 178 kts
2026-04-26 03:08 50.02166 -97.31392 3222 ft 178 kts
2026-04-26 03:08 50.03378 -97.31206 3233 ft 178 kts
2026-04-26 03:08 50.04621 -97.31018 3216 ft 179 kts
2026-04-26 03:09 50.05858 -97.30777 3225 ft 179 kts
2026-04-26 03:09 50.07084 -97.30454 3210 ft 180 kts
2026-04-26 03:09 50.08308 -97.30157 3216 ft 179 kts
2026-04-26 03:09 50.09530 -97.29790 3232 ft 179 kts 10°
2026-04-26 03:10 50.10757 -97.29306 3204 ft 181 kts 13°
2026-04-26 03:10 50.11974 -97.28719 3215 ft 181 kts 15°
2026-04-26 03:10 50.13240 -97.28387 3209 ft 181 kts 355°
2026-04-26 03:10 50.14471 -97.28768 3258 ft 175 kts 332°
2026-04-26 03:11 50.15432 -97.29915 3272 ft 169 kts 305°
2026-04-26 03:11 50.16124 -97.31381 3320 ft 163 kts 302°
2026-04-26 03:11 50.16621 -97.32973 3249 ft 164 kts 279°
2026-04-26 03:11 50.16427 -97.34705 3224 ft 166 kts 237°
2026-04-26 03:12 50.15469 -97.35731 3267 ft 169 kts 195°
2026-04-26 03:12 50.14297 -97.35518 3285 ft 175 kts 160°
2026-04-26 03:12 50.13357 -97.34335 3298 ft 178 kts 133°
2026-04-26 03:12 50.12611 -97.32845 3241 ft 172 kts 131°
2026-04-26 03:13 50.11878 -97.31332 3004 ft 177 kts 131°
2026-04-26 03:13 50.11149 -97.29819 3010 ft 173 kts 131°
2026-04-26 03:13 50.10466 -97.28267 2983 ft 175 kts 126°
2026-04-26 03:13 50.09814 -97.26659 2974 ft 176 kts 128°
2026-04-26 03:14 50.09090 -97.25169 3005 ft 173 kts 135°
2026-04-26 03:14 50.08257 -97.23824 3034 ft 171 kts 142°
2026-04-26 03:14 50.07313 -97.22689 3046 ft 171 kts 151°
2026-04-26 03:14 50.06275 -97.21767 3086 ft 168 kts 159°
2026-04-26 03:15 50.05183 -97.21117 3093 ft 168 kts 168°
2026-04-26 03:15 50.04018 -97.20823 3100 ft 166 kts 182°
2026-04-26 03:15 50.02886 -97.20973 3055 ft 162 kts 191°
2026-04-26 03:15 50.01749 -97.21237 2904 ft 164 kts 192°
2026-04-26 03:16 50.00639 -97.21510 2726 ft 165 kts 192°
2026-04-26 03:16 49.99519 -97.21797 2535 ft 163 kts 193°
2026-04-26 03:16 49.98425 -97.22088 2304 ft 165 kts 193°
2026-04-26 03:16 49.97359 -97.22360 2075 ft 164 kts 192°
2026-04-26 03:17 49.96310 -97.22601 1796 ft 166 kts 191°
2026-04-26 03:17 49.95243 -97.22845 1484 ft 168 kts 191°
2026-04-26 03:17 49.94193 -97.23088 1211 ft 156 kts 190°
2026-04-26 03:17 49.93221 -97.23313 988 ft 153 kts 190°
2026-04-26 03:18 49.92285 -97.23538 811 ft 141 kts 189°
2026-04-26 03:18 49.91501 -97.23724 777 ft 81 kts 189°
2026-04-26 03:18 49.91198 -97.23795 777 ft 30 kts 189°
2026-04-26 03:18 49.91011 -97.23837 777 ft 28 kts 189°
2026-04-26 03:19 49.90842 -97.23820 774 ft 23 kts 135°
2026-04-26 03:19 49.90823 -97.23623 774 ft 17 kts 79°
2026-04-26 03:19 49.90845 -97.23450 774 ft 16 kts 79°
2026-04-26 03:19 49.90866 -97.23282 773 ft 16 kts 82°
2026-04-26 03:20 49.90877 -97.23105 771 ft 16 kts 85°
2026-04-26 03:20 49.90885 -97.22939 770 ft 15 kts 87°
2026-04-26 03:20 49.90855 -97.22786 769 ft 15 kts 126°
2026-04-26 03:20 49.90784 -97.22654 767 ft 16 kts 129°
2026-04-26 03:21 49.90710 -97.22563 765 ft 10 kts 168°
2026-04-26 03:21 49.90676 -97.22554 765 ft 0 kts 172°